星链-4034 (STARLINK-4034 )

导读

STARLINK-4034是美国太空探索技术公司 SpaceX 星链计划中的卫星,于2022年5月18日发射升空。作为星链星座组网的一员,它主要服务于全球宽带互联网接入项目,旨在为全球偏远地区以及高速需求场景提供低延迟、高带宽的卫星互联网服务,是星链大规模商业组网进程中的组成单元。

Basic Information
目录编号:
52700
目录名称:
STARLINK-4034
国际标识:
2022-053AW
轨道中心:
EARTH
卫星名称:
星链-4034
卫星全名:
星链-4034 (STARLINK-4034 )
卫星状态:
在轨 (已飞行1491 天)
发射日期:
2022-05-18 UTC
国别 :
美国 (US)
星等 :
--
Orbit Information
数据来源 国际轨道数据 AOE轨道数据
星历时间 2026-06-17T07:31:14+0800
16小时前
查看轨道信息
2026-06-11T01:00:00+0800
6天前
查看轨道信息
半长轴 6918.143km 6917.925km
偏心率 0.0001717 0.000154
轨道倾角 53.161° 53.160°
近地点辐角 115.494° 104.740°
升交点赤经 62.940° 91.126°
平近点角 244.623° 10.321°
近地点 538.818km 538.722km
远地点 541.194km 540.854km
周期 95.443分钟 95.438分钟
每日圈数 15.087542 15.088255
Detailed Information
固有亮度:
5
最大亮度:
2.5
卫星平台:
Starlink v1.5
覆盖范围:
全球
运营商:
太空探索技术公司
运营商所在国:
美国
制造商(研发单位):
太空探索技术公司
制造商所在国:
美国
使用方式:
暂无
Satellite Introduction
星链(Starlink)计划是由太空探索技术公司(SpaceX)提出的一个巨型低轨卫星互联网星座项目,计划在2019年至2024年间在太空搭建由约1.2万颗卫星组成的“星链”网络,其中1584颗将部署在地球上空550千米处的近地轨道,并从2020年开始工作。该卫星仍在工作。
2D Orbit Map
3D Orbit Map
Orbit Altitude Analysis Chart
Orbit Inclination Analysis Chart
Orbit Comprehensive Analysis Chart
View Comprehensive Chart